Location: Bli��� Lhota
(48.7570°N, 14.0120°E)
Time: 22:15:10
(UTC+00:00)

SL-08 RB Rocket - Pass Details

Date: 18 September 2020
Orbit: 647 x 684 km, 97.8° (Epoch: 30 October)

Event Time Altitude Azimuth Distance (km) Brightness Sun altitude
Exits shadow 17:54:34 - 146° (SE) 2,935 6.6 -8.2°
Reaches altitude 10° 17:56:40 10° 140° (SE) 2,103 5.8 -8.5°
Maximum altitude 18:01:00 43° 69° (ENE) 942 4.1 -9.2°
Drops below altitude 10° 18:05:20 10° 359° (N) 2,096 6.5 -9.9°
Sets 18:07:38 0° 352° (N) 3,007 7.4 -10.3°
